Location: Brotuna
(46.2000°N, 22.6000°E)
Time: 06:00:14
(UTC+00:00)

Cosmos 2333 Rocket - Pass Details

Date: 09 April 2020
Orbit: 841 x 861 km, 70.8° (Epoch: 29 May)

Event Time Altitude Azimuth Distance (km) Brightness Sun altitude
Rises 23:37:19 0° 331° (NNW) 3,407 5.9 -33.8°
Reaches altitude 10° 23:39:46 10° 329° (NNW) 2,469 5.0 -33.6°
Enters shadow 23:42:33 30° 323° (NW) 1,477 3.6 -33.5°
